| time (UTC) | temp F | wind direction | speed MPH | gust MPH | rain 1hr in | rain 24hr in | rain mn in | humidity % | barometer mb |
| 20260507163059 | 53 | 178 | 3.0 | 8.0 | 0.00 | 0.00 | 0.00 | 74 | 1019.0 |
| 20260507161557 | 52 | 178 | 4.0 | 8.0 | 0.00 | 0.00 | 0.00 | 75 | 1018.9 |
| 20260507160101 | 51 | 150 | 2.0 | 7.0 | 0.00 | 0.00 | 0.00 | 75 | 1019.0 |
| 20260507154555 | 51 | 178 | 4.0 | 10.0 | 0.00 | 0.00 | 0.00 | 75 | 1018.9 |
| 20260507153057 | 51 | 175 | 2.0 | 7.0 | 0.00 | 0.00 | 0.00 | 76 | 1018.9 |
| 20260507151553 | 51 | 178 | 2.0 | 7.0 | 0.00 | 0.00 | 0.00 | 77 | 1018.9 |
| 20260507150053 | 50 | 177 | 2.0 | 7.0 | 0.00 | 0.00 | 0.00 | 77 | 1018.9 |
| 20260507144552 | 50 | 179 | 4.0 | 8.0 | 0.00 | 0.00 | 0.00 | 77 | 1018.9 |
| 20260507143049 | 50 | 178 | 3.0 | 9.0 | 0.00 | 0.00 | 0.00 | 77 | 1018.8 |
| 20260507141553 | 50 | 176 | 4.0 | 11.0 | 0.00 | 0.00 | 0.00 | 77 | 1018.9 |
| 20260507140104 | 0 | 0.0 | 0.0 | 0.00 | 0.00 | 0.00 | 1018.6 | ||
| 20260507134540 | 0 | 0.0 | 0.0 | 0.00 | 0.00 | 0.00 | 1018.5 | ||
| 20260507133036 | 0 | 0.0 | 0.0 | 0.00 | 0.00 | 0.00 | 1018.4 | ||
| 20260507131532 | 0 | 0.0 | 0.0 | 0.00 | 0.00 | 0.00 | 1018.4 | ||
| 20260507130026 | 0 | 0.0 | 0.0 | 0.00 | 0.00 | 0.00 | 1018.3 | ||
| 20260507124526 | 0 | 0.0 | 0.0 | 0.00 | 0.00 | 0.00 | 1018.4 | ||
| 20260507123021 | 0 | 0.0 | 0.0 | 0.00 | 0.00 | 0.00 | 1018.4 | ||
| 20260507121516 | 0 | 0.0 | 0.0 | 0.00 | 0.00 | 0.00 | 1018.6 | ||
| 20260507120013 | 49 | 180 | 1.0 | 5.0 | 0.00 | 0.00 | 0.00 | 78 | 1018.7 |
| 20260507114511 | 51 | 179 | 2.0 | 7.0 | 0.00 | 0.00 | 0.00 | 78 | 1018.8 |
| 20260507113010 | 51 | 176 | 1.0 | 7.0 | 0.00 | 0.00 | 0.00 | 78 | 1018.8 |
| 20260507111510 | 51 | 177 | 2.0 | 5.0 | 0.00 | 0.00 | 0.00 | 79 | 1018.8 |
| 20260507110006 | 51 | 179 | 3.0 | 8.0 | 0.00 | 0.00 | 0.00 | 79 | 1018.9 |
| 20260507104505 | 52 | 179 | 1.0 | 6.0 | 0.00 | 0.00 | 0.00 | 79 | 1019.0 |
| 20260507103002 | 52 | 177 | 0.0 | 5.0 | 0.00 | 0.00 | 0.00 | 78 | 1019.1 |
| 20260507101502 | 52 | 178 | 1.0 | 7.0 | 0.00 | 0.00 | 0.00 | 78 | 1019.2 |
| 20260507100100 | 52 | 177 | 2.0 | 0.0 | 0.00 | 0.00 | 0.00 | 78 | 1019.1 |
| 20260507094600 | 52 | 176 | 3.0 | 8.0 | 0.00 | 0.00 | 0.00 | 78 | 1019.2 |
| 20260507093101 | 52 | 178 | 2.0 | 7.0 | 0.00 | 0.00 | 0.00 | 78 | 1019.3 |
| 20260507091559 | 52 | 179 | 3.0 | 9.0 | 0.00 | 0.00 | 0.00 | 78 | 1019.4 |
| 20260507090055 | 52 | 178 | 1.0 | 7.0 | 0.00 | 0.00 | 0.00 | 78 | 1019.6 |
| 20260507084555 | 53 | 153 | 2.0 | 0.0 | 0.00 | 0.00 | 0.00 | 78 | 1019.6 |
| 20260507083056 | 53 | 179 | 1.0 | 6.0 | 0.00 | 0.00 | 0.00 | 78 | 1019.4 |
| 20260507081551 | 53 | 179 | 2.0 | 8.0 | 0.00 | 0.00 | 0.00 | 79 | 1019.5 |
| 20260507080113 | 53 | 177 | 2.0 | 10.0 | 0.00 | 0.00 | 0.00 | 79 | 1019.4 |
| 20260507074547 | 53 | 176 | 2.0 | 8.0 | 0.00 | 0.00 | 0.00 | 79 | 1019.5 |
| 20260507073052 | 53 | 178 | 3.0 | 9.0 | 0.00 | 0.00 | 0.00 | 80 | 1019.4 |
| 20260507071557 | 53 | 174 | 1.0 | 9.0 | 0.00 | 0.00 | 0.00 | 81 | 1019.3 |
| 20260507070040 | 53 | 178 | 3.0 | 11.0 | 0.00 | 0.00 | 0.00 | 81 | 1019.3 |
| 20260507064545 | 53 | 176 | 2.0 | 12.0 | 0.00 | 0.00 | 0.00 | 81 | 1019.3 |
| 20260507063041 | 54 | 178 | 2.0 | 8.0 | 0.00 | 0.00 | 0.00 | 81 | 1019.4 |
| 20260507061539 | 54 | 179 | 3.0 | 10.0 | 0.00 | 0.00 | 0.00 | 81 | 1019.4 |
| 20260507060038 | 54 | 178 | 2.0 | 10.0 | 0.00 | 0.00 | 0.00 | 81 | 1019.3 |
| 20260507054541 | 55 | 152 | 2.0 | 9.0 | 0.00 | 0.00 | 0.00 | 80 | 1019.3 |
| 20260507053042 | 55 | 178 | 2.0 | 7.0 | 0.00 | 0.00 | 0.00 | 79 | 1019.2 |
| 20260507051535 | 56 | 157 | 2.0 | 7.0 | 0.00 | 0.00 | 0.00 | 79 | 1019.2 |
| 20260507050034 | 56 | 179 | 1.0 | 9.0 | 0.00 | 0.00 | 0.00 | 78 | 1019.2 |
| 20260507044534 | 56 | 175 | 2.0 | 12.0 | 0.00 | 0.00 | 0.00 | 78 | 1019.2 |
| 20260507043036 | 57 | 172 | 3.0 | 14.0 | 0.00 | 0.00 | 0.00 | 77 | 1019.1 |
| 20260507041531 | 57 | 178 | 7.0 | 14.0 | 0.00 | 0.00 | 0.00 | 76 | 1018.9 |
| 20260507040030 | 58 | 178 | 6.0 | 14.0 | 0.00 | 0.00 | 0.00 | 75 | 1018.8 |
| 20260507034531 | 59 | 176 | 6.0 | 12.0 | 0.00 | 0.00 | 0.00 | 76 | 1018.5 |
| 20260507033028 | 60 | 160 | 6.0 | 14.0 | 0.00 | 0.00 | 0.00 | 75 | 1018.3 |
| 20260507031527 | 61 | 154 | 3.0 | 11.0 | 0.00 | 0.00 | 0.00 | 76 | 1018.1 |
| 20260507030030 | 62 | 162 | 4.0 | 8.0 | 0.00 | 0.00 | 0.00 | 74 | 1017.9 |
| 20260507024526 | 63 | 178 | 1.0 | 9.0 | 0.00 | 0.00 | 0.00 | 74 | 1017.7 |
| 20260507023029 | 64 | 179 | 0.0 | 3.0 | 0.00 | 0.00 | 0.00 | 74 | 1017.6 |
| 20260507021525 | 64 | 177 | 2.0 | 9.0 | 0.00 | 0.00 | 0.00 | 73 | 1017.5 |
| 20260507020025 | 65 | 179 | 1.0 | 6.0 | 0.00 | 0.00 | 0.00 | 73 | 1017.6 |
| 20260507014524 | 65 | 178 | 0.0 | 9.0 | 0.00 | 0.00 | 0.00 | 73 | 1017.6 |
| 20260507013034 | 66 | 179 | 3.0 | 9.0 | 0.00 | 0.00 | 0.00 | 72 | 1017.7 |
| 20260507011534 | 66 | 150 | 3.0 | 8.0 | 0.00 | 0.00 | 0.00 | 70 | 1017.7 |
| 20260507010022 | 67 | 179 | 1.0 | 7.0 | 0.00 | 0.00 | 0.00 | 72 | 1017.6 |
| 20260507004521 | 68 | 178 | 6.0 | 11.0 | 0.00 | 0.00 | 0.00 | 68 | 1017.5 |
| 20260507003020 | 69 | 163 | 3.0 | 6.0 | 0.00 | 0.00 | 0.00 | 66 | 1017.5 |
| 20260507001519 | 70 | 177 | 2.0 | 5.0 | 0.00 | 0.00 | 0.00 | 61 | 1017.5 |
| 20260507000018 | 72 | 178 | 2.0 | 6.0 | 0.00 | 0.00 | 0.00 | 60 | 1017.5 |
| 20260506234515 | 71 | 179 | 0.0 | 9.0 | 0.00 | 0.00 | 0.00 | 61 | 1017.5 |
| 20260506233014 | 71 | 176 | 3.0 | 7.0 | 0.00 | 0.00 | 0.00 | 61 | 1017.5 |
| 20260506231510 | 69 | 181 | 3.0 | 9.0 | 0.00 | 0.00 | 0.00 | 67 | 1017.6 |
| 20260506230009 | 69 | 177 | 1.0 | 9.0 | 0.00 | 0.00 | 0.00 | 64 | 1017.8 |
| 20260506224512 | 68 | 179 | 5.0 | 7.0 | 0.00 | 0.00 | 0.00 | 67 | 1017.9 |
| 20260506223007 | 68 | 149 | 3.0 | 9.0 | 0.00 | 0.00 | 0.00 | 69 | 1018.0 |
| 20260506221506 | 68 | 174 | 6.0 | 8.0 | 0.00 | 0.00 | 0.00 | 69 | 1018.1 |
| 20260506220006 | 68 | 176 | 4.0 | 9.0 | 0.00 | 0.00 | 0.00 | 69 | 1018.2 |
| 20260506214505 | 68 | 149 | 3.0 | 12.0 | 0.00 | 0.00 | 0.00 | 67 | 1018.0 |
| 20260506213003 | 67 | 150 | 3.0 | 12.0 | 0.00 | 0.00 | 0.00 | 70 | 1018.1 |
| 20260506211502 | 67 | 154 | 7.0 | 11.0 | 0.00 | 0.00 | 0.00 | 68 | 1018.3 |
| 20260506210121 | 67 | 150 | 4.0 | 8.0 | 0.00 | 0.00 | 0.00 | 69 | 1018.5 |
| 20260506204559 | 66 | 179 | 1.0 | 10.0 | 0.00 | 0.00 | 0.00 | 69 | 1018.5 |
| 20260506203142 | 65 | 177 | 4.0 | 12.0 | 0.00 | 0.00 | 0.00 | 71 | 1018.5 |
| 20260506201555 | 65 | 167 | 7.0 | 11.0 | 0.00 | 0.00 | 0.00 | 71 | 1018.4 |
| 20260506200054 | 63 | 166 | 10.0 | 15.0 | 0.00 | 0.00 | 0.00 | 75 | 1018.6 |
| 20260506194554 | 63 | 150 | 9.0 | 18.0 | 0.00 | 0.00 | 0.00 | 74 | 1018.7 |
| 20260506193052 | 64 | 179 | 6.0 | 14.0 | 0.00 | 0.00 | 0.00 | 73 | 1018.9 |
| 20260506191553 | 63 | 179 | 3.0 | 12.0 | 0.00 | 0.00 | 0.00 | 75 | 1018.9 |
| 20260506190050 | 62 | 176 | 3.0 | 12.0 | 0.00 | 0.00 | 0.00 | 77 | 1018.9 |
| 20260506184555 | 62 | 179 | 7.0 | 12.0 | 0.00 | 0.00 | 0.00 | 76 | 1018.7 |
| 20260506183045 | 61 | 150 | 7.0 | 14.0 | 0.00 | 0.00 | 0.00 | 78 | 1018.7 |
| 20260506181543 | 61 | 168 | 7.0 | 11.0 | 0.00 | 0.00 | 0.00 | 80 | 1018.7 |
| 20260506180042 | 60 | 172 | 1.0 | 8.0 | 0.00 | 0.00 | 0.00 | 82 | 1019.0 |
| 20260506174539 | 60 | 178 | 2.0 | 5.0 | 0.00 | 0.00 | 0.00 | 82 | 1019.0 |
| 20260506173047 | 59 | 172 | 2.0 | 6.0 | 0.00 | 0.00 | 0.00 | 84 | 1018.8 |
| 20260506171536 | 58 | 179 | 5.0 | 10.0 | 0.00 | 0.00 | 0.00 | 84 | 1018.7 |
| 20260506170032 | 57 | 178 | 5.0 | 10.0 | 0.00 | 0.00 | 0.00 | 86 | 1018.7 |
| 20260506164531 | 57 | 179 | 6.0 | 8.0 | 0.00 | 0.00 | 0.00 | 87 | 1018.9 |